Voltar ao catálogo

COSMOS 2534

GLONASS

AtivoNavegaçãoMEO
NORAD 44299·PAYLOAD·🇷🇺 Russia

Lançado May 27, 2019 de Plesetsk Cosmodrome

Loading…

Próximas Passagens (próximas 24 horas)

TLE

AtualizadoSource: CelesTrak SupGP

Época: Sep 13, 2026, 23:59 UTC

1 44299C 19030A   26256.99979167  .00000000  00000+0  00000+0 0  2563
2 44299  64.3695 189.6285 0011542 276.4502 316.7894  2.13102256    12

Acompanhe COSMOS 2534 em tempo real com AllMySat

Download on the App Store